Temperature
20 21 21 21 21 21 21 20 20 20 20 20 19 19 19 19 19 19 19 19 19 19 19 19 18 18 18 18 18 18 18 18 18 18 18 18 18 18 18 18 17 17 17
21 21 21 21 21 21 20 20 20 20 20 19 19 19 19 19 19 19 19 19 19 19 19 19 19 19 19 19 18 18 18 18 18 18 18 18 18 18 18 18 18 17 17
21 21 20 21 21 21 20 20 20 20 19 19 19 19 19 19 19 19 19 19 19 19 19 19 19 19 19 19 19 18 18 18 18 18 18 18 18 18 18 18 18 18 18
22 21 21 21 21 20 20 20 20 19 19 19 19 19 19 19 19 19 19 19 19 19 19 19 19 19 19 19 18 18 18 18 18 18 18 18 18 18 18 18 18 18 18
21 21 21 21 20 20 20 20 20 19 19 19 19 19 19 19 19 19 19 19 19 19 19 19 19 19 19 19 18 18 18 18 18 18 18 18 18 18 18 18 18 18 18
21 21 21 20 20 20 20 20 20 19 19 19 19 19 19 19 19 19 19 18 18 18 19 19 19 19 19 19 18 18 18 18 18 18 18 18 18 18 18 18 18 18 18
21 21 21 20 20 20 20 20 20 19 19 19 19 19 19 19 19 19 19 18 18 18 18 18 19 19 19 19 18 18 18 18 18 18 18 18 18 18 18 18 18 18 18
21 21 21 20 20 20 20 20 20 19 19 19 19 19 19 19 19 19 19 18 18 18 18 18 18 19 19 19 19 18 18 18 18 18 18 18 18 18 18 18 18 18 18
21 21 21 20 20 20 20 20 20 19 19 19 19 19 19 18 18 18 18 18 18 18 18 18 18 18 19 19 19 18 18 18 18 18 18 18 18 18 18 18 18 18 18
21 21 20 20 20 20 20 19 19 19 19 19 19 18 18 18 18 18 18 18 18 18 18 18 18 18 18 18 18 18 18 18 18 18 18 18 18 18 18 18 18 18 18
20 20 20 20 19 19 19 19 19 19 19 18 18 18 18 18 18 18 18 18 18 18 18 18 18 18 18 18 18 18 18 18 18 18 18 18 18 18 18 18 18 18 18
20 19 19 19 19 19 19 19 18 18 18 18 18 18 18 18 18 18 18 18 18 18 18 18 18 18 18 18 18 18 18 18 18 18 18 18 18 18 18 18 18 18 18
19 19 19 19 19 19 19 18 18 18 18 18 18 18 18 18 18 18 17 17 17 17 18 18 18 18 18 18 18 18 18 18 18 18 18 17 18 18 18 18 18 18 18
19 19 19 19 19 18 18 18 18 18 18 18 18 18 18 18 17 17 17 17 17 17 17 17 17 17 17 17 17 17 17 17 17 18 17 17 17 17 17 18 18 18 18
19 19 19 19 19 18 18 18 18 18 18 18 17 17 17 17 17 17 17 17 17 17 17 17 17 17 17 17 17 17 17 17 17 17 17 17 17 17 17 17 17 18 18
20 19 19 19 19 18 18 18 18 18 18 17 17 17 17 17 17 17 17 16 16 16 16 16 16 16 16 16 16 16 16 16 17 17 17 17 17 17 17 17 17 17 17
20 19 19 19 18 18 18 18 18 18 17 17 17 17 17 16 16 16 16 16 16 16 16 16 16 16 16 16 16 16 16 16 16 16 16 16 17 16 16 17 17 17 17
19 19 19 18 18 18 18 18 18 17 17 17 17 16 16 16 16 16 15 15 15 15 15 15 16 16 16 16 16 16 16 16 16 16 16 16 16 16 16 16 16 16 17
19 19 19 18 18 18 18 17 17 17 17 16 16 16 16 16 15 15 15 15 15 15 15 15 15 15 15 15 15 16 16 16 16 16 16 16 16 16 16 16 16 16 16
19 19 19 18 18 18 18 17 17 17 16 16 16 16 16 15 15 15 15 14 14 14 14 14 14 14 15 15 15 15 16 16 16 16 16 16 16 16 16 16 16 16 16
18 18 18 18 18 18 18 17 17 17 16 16 16 15 15 15 15 15 14 14 14 14 14 14 14 14 14 14 15 15 16 16 16 16 16 16 17 16 16 16 16 16 16
18 18 18 18 18 18 18 17 17 16 16 16 15 15 15 15 15 14 14 14 14 14 13 13 13 13 14 14 14 14 15 15 16 16 16 16 16 16 16 16 16 16 16
19 19 19 19 18 18 18 17 17 16 16 16 15 15 15 15 14 14 14 14 14 13 13 13 13 13 13 13 13 13 13 14 14 15 15 15 15 16 16 16 16 16 16
19 19 19 19 19 18 18 17 17 16 16 16 15 15 15 14 14 14 14 13 13 13 13 13 13 13 13 13 13 13 13 13 13 14 15 15 15 15 15 16 16 16 16
19 19 19 19 19 18 18 17 17 16 16 16 15 15 15 14 14 14 13 13 13 13 13 13 13 12 12 12 12 13 13 13 13 13 13 14 15 15 15 15 15 15 15
20 20 19 19 19 18 18 17 17 17 16 16 15 15 15 14 14 14 13 13 13 13 13 13 12 12 12 12 12 12 12 12 12 12 12 13 14 15 15 15 15 15 15
Wind_Speed
8 12 19 20 20 19 19 19 18 18 18 18 18 18 18 17 17 17 16 15 14 14 13 12 11 11 11 11 11 11 10 10 10 11 11 12 13 14 16 18 18 17 20
13 16 20 20 20 19 19 18 18 18 18 18 18 17 17 16 16 15 15 14 13 13 12 11 11 10 10 10 10 9 9 9 9 10 11 12 13 14 16 17 18 17 19
15 17 19 20 20 19 19 19 19 18 18 17 17 17 16 16 15 14 13 13 12 12 11 10 10 9 9 8 8 8 7 7 7 9 10 10 10 13 16 17 18 18 18
17 16 18 20 20 19 19 19 19 18 18 17 17 16 15 15 14 13 12 12 11 11 10 10 9 9 8 7 7 6 6 6 5 6 8 8 10 14 16 17 18 17 17
14 16 19 21 20 20 19 19 18 18 17 17 16 15 15 14 13 12 11 10 10 10 9 9 8 8 7 6 5 5 4 4 4 6 9 10 12 15 16 16 17 17 16
12 16 19 21 21 20 20 19 18 18 17 16 16 15 14 13 12 11 10 9 9 9 8 8 8 7 6 5 3 3 3 4 4 7 11 12 13 15 16 16 16 16 16
13 14 18 21 20 20 20 19 18 17 16 16 15 14 13 12 11 10 9 9 8 8 7 7 7 7 5 4 2 1 2 4 4 6 10 12 13 15 16 16 16 16 15
15 14 17 20 20 19 19 18 17 16 15 14 13 12 11 10 9 9 8 8 8 7 7 7 7 7 6 4 3 2 1 2 4 5 9 12 15 16 16 16 16 15 15
14 13 13 16 17 18 18 17 16 15 13 12 11 9 8 8 7 7 7 8 7 7 8 8 8 8 8 6 5 4 2 1 3 4 9 11 15 16 16 16 16 15 15
11 10 10 12 14 14 14 15 14 13 11 9 8 7 5 4 4 5 7 8 8 8 9 9 9 9 9 8 7 6 5 2 1 3 7 12 16 16 16 16 15 15 15
10 8 8 9 11 12 11 11 11 10 8 7 5 4 3 1 1 4 7 9 10 9 9 9 10 9 9 9 9 8 7 5 3 4 9 13 17 17 17 16 16 16 15
11 8 8 8 8 9 9 9 8 7 7 6 5 5 4 3 3 2 2 5 7 8 9 9 9 9 9 8 9 9 8 8 6 5 10 16 19 18 18 18 17 17 16
11 9 7 7 8 8 7 8 7 7 8 8 8 8 8 7 6 6 4 3 3 3 4 5 6 8 8 8 7 8 10 9 8 7 10 17 21 20 19 19 19 18 18
11 10 8 8 8 8 8 7 8 7 7 7 9 10 9 6 6 6 5 4 3 2 2 3 3 6 6 7 8 8 9 9 8 8 10 16 21 21 20 20 19 19 19
12 9 8 9 9 7 7 6 8 7 8 9 10 11 11 7 4 5 6 6 5 2 1 1 2 3 3 4 5 5 6 7 8 9 10 16 21 22 21 20 20 20 20
12 10 8 8 7 8 6 5 6 8 10 10 9 10 12 9 7 5 5 5 6 5 2 1 1 1 1 1 3 3 4 6 7 8 9 13 19 22 22 21 21 21 21
11 10 9 8 7 8 7 6 7 9 10 9 8 10 11 10 8 6 4 4 6 8 6 4 3 2 1 1 2 3 3 4 6 7 9 11 14 19 22 23 23 22 22
10 9 8 9 8 8 6 6 6 9 10 8 9 9 9 10 10 8 4 4 8 9 7 3 4 3 3 2 2 3 2 3 5 7 8 10 13 15 19 22 23 23 23
10 9 8 8 8 7 6 6 7 8 8 8 8 8 8 9 10 8 5 6 9 7 5 4 4 3 3 4 4 3 3 3 4 6 6 10 13 15 16 20 23 24 24
8 8 8 7 7 7 5 5 4 4 3 6 6 7 7 7 9 8 6 7 8 5 5 5 4 4 3 3 4 4 4 4 3 4 6 8 11 14 16 17 18 21 24
9 9 8 7 6 5 4 4 3 3 3 3 4 7 7 7 8 7 4 5 5 5 5 5 4 5 4 4 4 5 5 4 4 4 3 3 5 9 12 14 15 16 17
9 9 8 8 7 6 4 4 3 3 3 3 3 5 7 7 7 6 4 3 4 4 6 6 5 3 4 4 3 3 4 6 5 4 3 2 3 3 5 10 12 14 15
10 10 10 9 8 7 6 3 3 3 3 2 2 2 4 6 6 7 6 4 3 4 4 4 4 4 3 3 3 3 2 2 4 4 4 5 5 3 3 4 8 12 14
12 11 10 10 9 7 7 6 5 4 3 3 3 3 3 4 6 7 7 5 3 3 3 2 3 2 3 3 3 2 1 3 1 4 5 5 6 5 5 4 4 6 9
13 12 11 10 9 8 8 8 7 5 4 3 3 3 2 2 3 7 7 5 3 2 2 2 2 2 1 1 1 2 2 1 1 1 4 5 5 4 4 4 3 5 7
12 11 11 11 10 9 9 8 8 8 7 5 3 3 1 1 1 5 7 5 4 3 2 1 0 1 1 1 1 0 0 0 1 1 2 4 5 5 5 4 3 4 7
Wind_Direction
149 149 139 134 131 129 127 125 122 120 117 115 113 113 112 111 110 110 110 109 107 106 104 101 99 96 94 95 95 95 96 98 100 103 106 109 114 118 119 121 118 116 119
144 144 135 132 130 131 130 129 129 127 125 123 123 122 121 120 118 117 117 115 113 110 107 104 101 99 97 97 96 94 92 93 96 101 104 108 113 117 118 118 119 123 121
134 135 132 129 128 129 131 131 130 129 129 128 128 127 127 126 126 125 124 123 120 117 114 110 106 104 101 99 95 93 89 87 91 100 105 105 111 116 119 120 121 122 122
130 130 130 127 126 128 129 130 130 130 130 131 131 131 131 132 131 131 130 130 128 125 123 119 115 111 108 103 95 88 82 77 79 105 123 119 115 120 122 123 123 124 124
125 127 130 126 124 124 125 126 127 128 130 130 131 132 133 135 136 136 136 136 135 134 133 129 125 122 118 111 99 83 69 53 55 104 125 122 121 126 127 128 128 127 127
122 126 129 125 123 123 123 124 126 127 129 131 132 134 136 137 138 140 141 141 142 142 140 140 139 136 132 126 112 83 47 29 55 118 130 131 132 134 134 135 134 132 132
126 126 128 126 125 124 125 125 126 128 130 132 134 137 139 140 142 145 148 150 151 151 153 153 154 154 152 152 150 100 21 12 80 136 146 144 143 142 142 141 139 138 137
132 129 131 131 130 129 128 129 130 131 133 136 138 141 144 146 150 155 161 163 166 166 165 169 169 170 174 183 199 235 332 18 84 131 155 155 153 150 149 147 145 146 144
133 131 132 134 133 133 134 135 136 137 138 140 144 147 151 155 163 171 178 180 180 180 180 183 186 187 191 199 215 238 262 344 82 137 163 165 162 157 156 155 154 154 154
134 135 135 135 134 135 138 140 140 140 140 143 146 149 153 163 181 202 203 198 198 197 196 197 201 202 201 205 217 233 244 260 137 161 174 178 170 165 165 164 164 163 163
139 140 138 137 138 138 141 142 140 137 133 133 137 137 130 135 221 240 227 217 213 209 207 206 209 211 211 214 220 229 236 230 209 180 183 186 180 175 174 174 173 173 173
148 149 145 143 147 148 144 135 130 118 106 99 89 87 75 53 25 351 271 235 226 221 220 218 217 217 215 217 228 234 230 227 223 205 196 192 189 185 181 181 181 181 181
145 137 128 135 143 142 129 129 119 108 101 93 81 78 72 57 42 31 20 346 297 251 233 233 228 222 213 211 222 230 225 226 225 220 210 203 196 192 188 187 187 186 186
125 124 122 121 122 123 122 118 115 111 107 95 78 74 70 56 41 27 16 3 355 316 251 237 229 225 217 214 220 226 221 217 221 221 224 214 201 197 195 194 193 193 192
122 124 126 122 121 120 115 119 117 117 112 100 82 73 72 62 41 25 17 17 11 2 244 223 228 225 222 223 225 222 218 214 216 218 223 217 206 203 202 201 200 199 199
129 131 130 125 123 118 116 115 120 121 116 104 93 81 74 67 52 35 24 20 14 11 359 269 253 239 244 247 256 245 232 226 220 219 227 222 215 211 209 209 208 206 205
137 136 135 129 119 116 118 123 125 127 122 114 106 90 81 73 60 49 31 13 8 15 21 28 24 35 27 341 287 270 249 242 234 229 226 222 221 218 218 217 216 212 211
138 135 139 131 123 121 123 126 127 128 127 127 115 99 89 78 66 56 39 17 18 30 31 41 42 44 31 13 322 294 282 273 261 248 235 226 223 224 224 224 223 220 218
142 139 134 132 133 130 127 124 123 126 130 138 126 113 101 85 72 66 51 31 32 34 24 27 40 43 26 355 315 298 296 279 267 263 245 233 224 223 224 228 227 226 225
141 140 140 139 139 129 116 103 97 101 121 143 142 135 119 99 82 76 62 41 38 35 22 19 26 29 27 347 333 332 306 290 281 264 253 245 230 225 224 227 229 231 229
143 144 151 148 152 135 123 124 124 138 152 157 167 152 137 119 101 89 73 53 45 42 28 21 24 22 9 4 16 344 332 329 317 293 268 251 238 231 223 223 223 225 228
159 161 163 163 161 155 153 158 160 152 161 166 167 161 156 141 131 116 101 82 60 48 34 34 41 35 5 20 36 22 351 342 338 341 345 327 278 249 228 226 222 221 222
171 176 176 178 174 171 162 135 102 80 72 82 118 178 192 168 153 136 125 109 82 72 53 47 55 64 23 358 35 81 60 317 313 324 348 3 349 322 283 253 229 223 221
185 185 182 182 181 178 163 150 147 148 156 179 180 195 211 192 173 157 142 127 109 95 78 50 72 72 68 14 360 36 166 199 257 318 327 345 346 341 322 300 269 240 227
190 188 187 184 185 182 171 161 150 147 158 160 149 161 200 234 192 171 155 144 131 121 115 82 58 52 76 83 349 342 354 12 88 148 312 328 335 331 326 304 285 272 250
194 191 186 184 189 183 174 166 159 159 164 160 164 177 221 269 181 173 164 160 157 156 165 173 141 16 355 304 273 275 87 353 324 354 282 306 312 307 315 320 313 292 274
Height
1539 1542 1544 1546 1547 1548 1550 1551 1552 1553 1554 1555 1556 1557 1558 1559 1559 1560 1561 1562 1562 1563 1563 1564 1564 1564 1564 1565 1565 1565 1565 1565 1565 1565 1565 1566 1566 1567 1568 1569 1570 1571 1572
1537 1541 1544 1546 1548 1549 1550 1551 1553 1554 1555 1556 1556 1557 1558 1559 1560 1560 1561 1562 1563 1563 1564 1564 1565 1565 1565 1565 1566 1566 1566 1566 1567 1567 1567 1567 1568 1569 1569 1571 1572 1572 1574
1538 1541 1545 1547 1548 1550 1551 1552 1553 1554 1555 1556 1557 1558 1558 1559 1560 1561 1561 1562 1563 1564 1564 1565 1565 1566 1566 1566 1567 1567 1567 1568 1568 1568 1569 1569 1570 1571 1571 1572 1573 1574 1575
1539 1542 1545 1548 1549 1551 1552 1553 1554 1555 1556 1557 1557 1558 1559 1559 1560 1561 1561 1562 1563 1564 1565 1565 1566 1566 1567 1567 1568 1568 1569 1569 1569 1570 1570 1571 1571 1572 1573 1574 1574 1576 1576
1540 1543 1546 1548 1550 1551 1553 1554 1555 1556 1556 1557 1558 1558 1559 1560 1560 1561 1562 1562 1563 1564 1565 1566 1566 1567 1567 1568 1569 1569 1570 1570 1571 1571 1571 1572 1573 1573 1574 1575 1576 1577 1578
1541 1544 1547 1549 1551 1552 1553 1555 1556 1556 1557 1558 1558 1559 1559 1560 1560 1561 1562 1562 1563 1564 1565 1566 1567 1567 1568 1569 1569 1570 1571 1571 1572 1572 1573 1573 1574 1574 1575 1576 1577 1578 1579
1542 1545 1548 1550 1551 1553 1554 1555 1556 1557 1558 1558 1559 1559 1560 1560 1561 1561 1562 1563 1563 1564 1565 1566 1567 1567 1568 1569 1570 1571 1571 1572 1572 1573 1574 1574 1575 1576 1576 1577 1578 1579 1580
1543 1545 1548 1551 1552 1553 1554 1555 1557 1558 1559 1559 1559 1560 1560 1560 1561 1561 1562 1562 1563 1564 1565 1566 1566 1567 1568 1569 1570 1571 1572 1572 1572 1573 1574 1575 1576 1576 1577 1578 1579 1580 1581
1544 1546 1548 1551 1553 1554 1555 1556 1557 1558 1559 1559 1560 1560 1560 1560 1560 1561 1561 1562 1563 1563 1564 1565 1566 1567 1568 1569 1570 1571 1572 1572 1573 1573 1574 1575 1576 1577 1578 1579 1579 1581 1582
1546 1547 1549 1551 1553 1554 1556 1556 1557 1558 1559 1560 1560 1560 1560 1560 1560 1560 1561 1561 1562 1563 1563 1564 1565 1566 1567 1568 1569 1570 1571 1572 1573 1573 1574 1575 1577 1578 1578 1579 1580 1581 1582
1547 1548 1549 1551 1553 1555 1556 1557 1557 1558 1559 1559 1560 1560 1559 1559 1559 1560 1560 1560 1561 1561 1562 1562 1563 1564 1565 1566 1568 1569 1570 1571 1572 1573 1574 1575 1576 1577 1578 1579 1580 1581 1582
1546 1548 1550 1551 1553 1555 1556 1557 1557 1558 1559 1559 1560 1559 1559 1559 1558 1558 1559 1559 1560 1560 1560 1561 1562 1562 1564 1565 1566 1567 1569 1570 1571 1572 1573 1574 1575 1576 1578 1579 1580 1581 1582
1546 1548 1550 1551 1553 1554 1556 1557 1557 1557 1558 1559 1559 1558 1558 1558 1557 1557 1557 1557 1558 1558 1558 1559 1560 1560 1561 1563 1564 1565 1566 1568 1569 1570 1571 1573 1574 1575 1576 1578 1579 1580 1581
1545 1547 1549 1551 1553 1554 1556 1556 1556 1557 1558 1558 1558 1558 1557 1557 1556 1555 1555 1555 1555 1556 1556 1557 1558 1558 1559 1560 1561 1563 1564 1565 1567 1568 1569 1570 1572 1573 1575 1577 1578 1579 1580
1546 1548 1550 1551 1553 1554 1555 1556 1557 1557 1558 1558 1558 1557 1556 1555 1554 1554 1553 1553 1553 1554 1554 1555 1555 1556 1557 1558 1559 1560 1561 1563 1564 1565 1566 1568 1569 1571 1572 1574 1576 1577 1579
1545 1548 1550 1552 1553 1554 1555 1556 1557 1558 1558 1558 1558 1557 1555 1554 1553 1552 1552 1552 1552 1552 1552 1553 1553 1554 1555 1556 1556 1557 1558 1560 1561 1562 1563 1565 1566 1568 1570 1571 1573 1575 1577
1545 1548 1550 1552 1553 1554 1555 1556 1557 1557 1557 1557 1557 1556 1555 1554 1552 1551 1551 1551 1551 1551 1551 1551 1552 1552 1553 1553 1554 1555 1556 1557 1558 1559 1560 1561 1563 1564 1566 1568 1570 1572 1574
1545 1547 1549 1551 1553 1554 1555 1556 1557 1557 1557 1557 1557 1556 1554 1553 1552 1551 1550 1550 1550 1550 1550 1550 1550 1551 1551 1551 1552 1553 1553 1554 1555 1556 1557 1558 1559 1561 1562 1564 1566 1568 1570
1545 1547 1549 1551 1553 1554 1555 1556 1557 1557 1557 1557 1556 1555 1554 1553 1551 1550 1549 1549 1548 1548 1548 1548 1549 1549 1549 1550 1550 1550 1551 1551 1552 1553 1553 1554 1555 1556 1558 1560 1561 1563 1565
1545 1547 1550 1551 1553 1554 1555 1556 1556 1556 1556 1556 1555 1555 1554 1552 1551 1550 1549 1548 1547 1547 1547 1547 1547 1548 1548 1548 1548 1548 1548 1549 1549 1549 1550 1551 1551 1552 1554 1555 1557 1559 1560
1545 1547 1549 1551 1553 1554 1555 1555 1556 1556 1556 1555 1555 1554 1553 1552 1550 1549 1548 1547 1546 1545 1545 1545 1545 1546 1546 1545 1546 1545 1546 1546 1547 1547 1547 1547 1548 1549 1550 1551 1552 1554 1556
1545 1547 1549 1550 1552 1553 1554 1555 1555 1555 1555 1554 1554 1553 1552 1551 1550 1548 1547 1546 1545 1545 1544 1544 1544 1544 1544 1544 1544 1544 1544 1545 1545 1545 1545 1545 1545 1546 1546 1548 1548 1549 1551
1544 1546 1547 1549 1550 1552 1553 1554 1554 1554 1554 1553 1552 1552 1551 1550 1549 1548 1547 1546 1545 1544 1544 1543 1543 1543 1543 1543 1543 1544 1544 1543 1543 1543 1543 1543 1543 1543 1543 1544 1545 1546 1547
1542 1544 1546 1547 1549 1550 1551 1552 1552 1552 1552 1551 1551 1550 1550 1549 1548 1548 1547 1546 1545 1544 1543 1543 1542 1542 1542 1542 1542 1543 1544 1543 1543 1542 1542 1542 1541 1541 1541 1541 1542 1542 1543
1540 1542 1544 1546 1547 1548 1549 1550 1550 1549 1549 1549 1549 1548 1548 1548 1547 1546 1546 1545 1544 1544 1543 1542 1541 1541 1540 1540 1541 1541 1542 1542 1542 1541 1539 1539 1539 1540 1539 1539 1539 1539 1540
1538 1540 1541 1543 1545 1546 1547 1547 1547 1547 1547 1547 1547 1546 1546 1545 1545 1545 1545 1544 1543 1543 1542 1541 1540 1539 1539 1539 1539 1539 1539 1540 1539 1539 1538 1537 1536 1537 1537 1537 1537 1537 1537